Location: Worth Mountain WMA
(34.9569°N, 81.4819°W)
Time: 18:18:19
(UTC-04:00)

Amateur Radio Satellites - All Passes

Search period start: 01 October 2016 17:48
Search period end: 02 October 2016 17:48
Location: Worth Mountain WMA, 34.9569°N, 81.4819°W

Satellite Date Start Highest point End Downlink Frequencies (MHz)
Time Altitude Azimuth
RS-15 01 Oct 17:50:58 17:56:14 14° 96° (E) 18:01:35 29.354- 29.394
CUTE-I 01 Oct 18:04:15 18:08:26 24° 67° (ENE) 18:12:39 437.470
Cubesat XI-IV 01 Oct 18:05:25 18:09:39 25° 67° (ENE) 18:13:53 437.490
ISS 01 Oct 18:05:34 18:07:16 14° 127° (SE) 18:08:57 145.825
GOMX 1 01 Oct 18:17:48 18:22:44 38° 73° (ENE) 18:27:26 467.674
DOVE 4 01 Oct 18:20:17 18:23:11 16° 68° (ENE) 18:26:02 437.250
CUBESAT XI-V 01 Oct 18:25:19 18:30:00 67° 101° (E) 18:34:36 437.345
KKS-1 01 Oct 18:27:11 18:30:37 22° 291° (WNW) 18:34:02 437.445
MOZHAYETS 4 01 Oct 18:33:27 18:35:36 13° 295° (WNW) 18:37:44
O/OREOS (USA 219) 01 Oct 18:34:51 18:37:38 16° 261° (W) 18:40:23 437.305
HORYU 2 01 Oct 18:41:49 18:45:25 25° 263° (W) 18:49:03 437.375
STARS 01 Oct 18:49:02 18:52:40 26° 290° (WNW) 18:56:18 437.465
BRITE-PL 01 Oct 18:49:17 18:54:43 47° 261° (W) 19:00:05 437.365/2234.400
JUGNU 01 Oct 18:52:54 18:55:45 14° 168° (SSE) 18:58:35 437.505
CUSAT 1 01 Oct 18:52:54 18:58:57 47° 90° (E) 19:06:11 437.405
LilacSat-2 01 Oct 18:55:05 18:58:49 79° 78° (ENE) 19:02:36 437.200
NOAA 15 01 Oct 19:12:41 19:17:54 58° 259° (W) 19:23:09 137.62
NOAA 18 01 Oct 19:19:20 19:24:48 79° 257° (WSW) 19:30:17 137.9125
AO-85 01 Oct 19:23:03 19:26:08 16° 109° (ESE) 19:29:08 145.980
DANDE 01 Oct 19:23:25 19:27:56 28° 84° (E) 19:33:33 436.750
GONETS M04 01 Oct 19:23:58 19:31:46 34° 74° (ENE) 19:39:28
STRAND 1 01 Oct 19:33:32 19:36:12 14° 92° (E) 19:38:51 437.568
SEEDS 01 Oct 19:37:45 19:38:43 11° 66° (ENE) 19:39:41 437.485
ISS 01 Oct 19:40:19 19:43:26 43° 321° (NW) 19:46:34 145.825
CUTE 1.7 + AOD 2 01 Oct 19:42:04 19:45:00 18° 69° (ENE) 19:47:57 437.475
CUTE-I 01 Oct 19:43:25 19:48:14 36° 262° (W) 19:53:07 437.470
CANX-2 01 Oct 19:43:46 19:47:05 22° 70° (ENE) 19:50:24 2200.000
Cubesat XI-IV 01 Oct 19:44:40 19:49:29 35° 262° (W) 19:54:21 437.490
RS-15 01 Oct 19:55:01 20:06:27 77° 115° (ESE) 20:18:32 29.354- 29.394
DOVE 4 01 Oct 19:55:44 20:00:32 47° 260° (W) 20:05:06 437.250
GOMX 1 01 Oct 19:56:41 20:00:48 22° 265° (W) 20:04:47 467.674
HO-68 01 Oct 20:01:45 20:08:38 52° 69° (ENE) 20:15:31 435.675
CUBESAT XI-V 01 Oct 20:05:33 20:06:44 11° 296° (WNW) 20:07:55 437.345
Cosmos 2499 01 Oct 20:07:02 20:14:39 56° 81° (E) 20:22:50 435.465 / 435.565
COMPASS 1 01 Oct 20:33:26 20:37:11 33° 73° (ENE) 20:40:58 437.405
CUSAT 1 01 Oct 20:35:33 20:41:12 30° 291° (WNW) 20:47:44 437.405
CINEMA 3 01 Oct 20:36:52 20:41:17 65° 259° (W) 20:45:33 145.822/145.860
JUGNU 01 Oct 20:40:05 20:44:02 18° 178° (S) 20:47:58 437.505
FUNcube-1 01 Oct 21:00:49 21:03:42 19° 69° (ENE) 21:06:36 145.935
AO-85 01 Oct 21:01:03 21:06:13 57° 301° (WNW) 21:11:05 145.980
DANDE 01 Oct 21:05:23 21:10:23 36° 289° (WNW) 21:16:45 436.750
SEEDS 01 Oct 21:09:45 21:13:52 55° 260° (W) 21:18:03 437.485
STRAND 1 01 Oct 21:10:37 21:15:40 57° 287° (WNW) 21:20:42 437.568
CUBEBUG 2 01 Oct 21:15:31 21:19:42 85° 78° (ENE) 21:23:52 437.445
CUTE 1.7 + AOD 2 01 Oct 21:16:51 21:20:35 30° 263° (W) 21:24:22 437.475
CANX-2 01 Oct 21:19:18 21:22:47 25° 264° (W) 21:26:18 2200.000
AAUSAT CUBESAT 2 01 Oct 21:19:39 21:23:49 84° 259° (WSW) 21:28:01 437.432
GONETS M04 01 Oct 21:20:27 21:28:39 46° 272° (W) 21:36:47
UWE-3 01 Oct 21:24:29 21:28:36 67° 76° (ENE) 21:32:43 435.000/436.395/437.385
Oscar 11 01 Oct 21:33:33 21:37:42 50° 74° (ENE) 21:41:53 145.826/435.025
ZACube-1 01 Oct 21:43:58 21:48:04 70° 75° (ENE) 21:52:12 437.345
SRMSAT 01 Oct 21:45:23 21:48:41 15° 171° (S) 21:52:00 437.500
HO-68 01 Oct 21:50:50 21:56:33 26° 264° (W) 22:02:18 435.675
Cosmos 2499 01 Oct 22:01:13 22:07:16 25° 275° (W) 22:13:38 435.465 / 435.565
DELFI C3 01 Oct 22:02:50 22:06:35 39° 74° (ENE) 22:10:20 145.870
RS-15 01 Oct 22:09:59 22:20:09 33° 318° (NW) 22:30:48 29.354- 29.394
COMPASS 1 01 Oct 22:10:10 22:12:47 16° 266° (W) 22:15:24 437.405
JUGNU 01 Oct 22:28:52 22:32:19 16° 189° (S) 22:35:46 437.505
FUNcube-1 01 Oct 22:36:11 22:39:44 28° 263° (W) 22:43:18 145.935
PRISM 01 Oct 22:42:52 22:46:53 52° 286° (WNW) 22:50:50 437.425
UNISAT 6 01 Oct 22:53:18 22:56:52 23° 96° (E) 23:00:28 437.425
HUMSAT D 01 Oct 23:01:35 23:05:39 79° 257° (WSW) 23:09:48 437.325/437.525
Oscar 11 01 Oct 23:12:48 23:14:05 11° 268° (W) 23:15:22 145.826/435.025
ESTCUBE 1 01 Oct 23:17:47 23:21:17 22° 69° (ENE) 23:24:47 437.505/2401.250
ANTELSAT 01 Oct 23:27:47 23:32:13 57° 100° (E) 23:36:43 437.575/2403.000
SRMSAT 01 Oct 23:33:13 23:37:07 18° 181° (S) 23:41:01 437.500
DELFI C3 01 Oct 23:39:55 23:41:33 12° 267° (W) 23:43:12 145.870
M-CUBED/EXP-1 PRIME 01 Oct 23:42:02 23:44:03 14° 65° (ENE) 23:45:59 437.505
TIGRISAT 01 Oct 23:47:00 23:51:30 90° 189° (S) 23:56:03 435.000
50 SAT 01 Oct 23:48:13 23:50:39 17° 70° (ENE) 23:53:06 437.505
AISAT 01 Oct 23:51:01 23:54:41 26° 70° (ENE) 23:58:21 437.250
SO-50 01 Oct 23:55:04 23:59:33 56° 58° (ENE) 00:03:54 436.795
BEESAT 3 02 Oct 00:03:07 00:06:49 44° 115° (ESE) 00:10:33 437.485
QB50P2 02 Oct 00:08:11 00:11:13 19° 95° (E) 00:14:15 145.880/145.840
POLYITAN 1 02 Oct 00:10:20 00:13:22 19° 95° (E) 00:16:24 437.675
DX 1 02 Oct 00:10:57 00:14:31 25° 70° (ENE) 00:18:05 434.975-435.025
CUBEBUG 1 02 Oct 00:25:45 00:30:11 83° 75° (ENE) 00:34:36 437.445
UNISAT 6 02 Oct 00:29:42 00:33:30 28° 289° (WNW) 00:37:22 437.425
RS-15 02 Oct 00:32:46 00:38:29 14° 353° (N) 00:44:15 29.354- 29.394
AUBIESAT-1 02 Oct 00:33:04 00:36:53 45° 71° (ENE) 00:40:27 437.475
VELOX 1 02 Oct 00:33:17 00:37:44 77° 75° (ENE) 00:42:11 145.980
DUCHIFAT 1 02 Oct 00:40:58 00:44:53 38° 98° (E) 00:48:48 145.980
JAS-2 02 Oct 00:41:00 00:48:19 43° 97° (E) 00:55:04 435.910
SPROUT 02 Oct 00:45:31 00:49:39 54° 75° (ENE) 00:53:49 437.525
QB50P1 02 Oct 00:47:59 00:52:08 55° 101° (E) 00:56:16 145.935-145.965
ESTCUBE 1 02 Oct 00:53:57 00:57:53 29° 263° (W) 01:01:51 437.505/2401.250
POPSAT HIP 1 02 Oct 01:01:53 01:06:07 81° 102° (ESE) 01:10:21 437.405
ANTELSAT 02 Oct 01:06:46 01:08:26 12° 294° (WNW) 01:10:06 437.575/2403.000
BEESAT 2 02 Oct 01:07:47 01:11:40 63° 300° (WNW) 01:15:38 435.950
Cosmos 2491 02 Oct 01:08:35 01:15:10 23° 69° (ENE) 01:21:40 435.465 / 435.565
UKube-1 02 Oct 01:08:38 01:12:57 89° 241° (WSW) 01:17:18 .
M-CUBED/EXP-1 PRIME 02 Oct 01:14:27 01:18:18 38° 256° (WSW) 01:21:53 437.505
NANOSAT C BR1 02 Oct 01:15:02 01:19:14 72° 283° (WNW) 01:23:25 145.865
50 SAT 02 Oct 01:21:00 01:23:56 23° 263° (W) 01:26:54 437.505
SRMSAT 02 Oct 01:22:38 01:25:33 14° 191° (S) 01:28:28 437.500
AISAT 02 Oct 01:27:28 01:31:03 24° 264° (W) 01:34:39 437.250
SO-50 02 Oct 01:37:45 01:39:26 12° 253° (WSW) 01:41:07 436.795
BEESAT 3 02 Oct 01:42:35 01:44:41 14° 311° (NW) 01:46:48 437.485
QB50P2 02 Oct 01:43:21 01:47:00 29° 289° (WNW) 01:50:38 145.880/145.840
POLYITAN 1 02 Oct 01:45:30 01:49:09 29° 289° (WNW) 01:52:48 437.675
DX 1 02 Oct 01:47:04 01:50:36 24° 264° (W) 01:54:08 434.975-435.025
TISAT 1 02 Oct 01:49:28 01:53:32 54° 74° (ENE) 01:57:37 437.305
BUGSAT 1 02 Oct 01:59:55 02:03:53 57° 285° (WNW) 02:07:51 437.445
YUBILEINY 02 Oct 02:03:09 02:09:31 23° 82° (E) 02:15:51 435.215
ISS 02 Oct 02:10:41 02:13:49 42° 38° (NE) 02:16:57 145.825
AUBIESAT-1 02 Oct 02:10:41 02:11:25 10° 261° (W) 02:12:08 437.475
DUCHIFAT 1 02 Oct 02:17:50 02:20:13 15° 293° (WNW) 02:22:37 145.980
JAS-2 02 Oct 02:26:09 02:33:03 36° 294° (WNW) 02:39:31 435.910
QB50P1 02 Oct 02:26:23 02:27:23 11° 295° (WNW) 02:28:23 145.935-145.965
AIST 2 02 Oct 02:32:02 02:35:31 28° 112° (ESE) 02:39:04 435.215
Gurwin Techsat 1B 02 Oct 02:42:26 02:46:59 28° 96° (E) 02:51:29 435.225
ITUPSAT 1 02 Oct 02:44:30 02:48:56 40° 72° (ENE) 02:53:24 437.325
Oscar 19 02 Oct 02:46:52 02:52:00 70° 102° (ESE) 02:57:06 437.125/150
RS-15 02 Oct 02:49:15 02:58:11 22° 30° (NNE) 03:07:01 29.354- 29.394
SWISSCUBE 02 Oct 02:54:44 02:59:24 60° 75° (ENE) 03:04:07 437.505
Cosmos 2491 02 Oct 03:03:55 03:12:40 69° 268° (W) 03:21:21 435.465 / 435.565
BEESAT 02 Oct 03:07:08 03:11:52 74° 75° (ENE) 03:16:37 436.000
PCSat 02 Oct 03:39:54 03:45:05 48° 111° (ESE) 03:50:17 145.827
KKS-1 02 Oct 03:46:02 03:49:00 18° 67° (ENE) 03:51:59 437.445
ISS 02 Oct 03:48:10 03:50:01 14° 233° (SW) 03:51:52 145.825
ITAMSAT 1 02 Oct 03:50:24 03:55:06 33° 98° (E) 03:59:46 435.822/435.867
Cosmos 2504 02 Oct 03:51:34 03:58:28 44° 90° (E) 04:05:10 435.465 / 435.565
MOZHAYETS 4 02 Oct 03:53:03 03:57:10 34° 72° (ENE) 04:01:19
AO-7 02 Oct 03:53:30 03:59:41 23° 95° (E) 04:05:50 29.400- 29.500
YUBILEINY 02 Oct 03:56:47 04:05:29 65° 279° (W) 04:14:12 435.215
STARS 02 Oct 04:07:35 04:09:52 14° 66° (ENE) 04:12:09 437.465
AIST 2 02 Oct 04:10:44 04:13:58 22° 308° (NW) 04:17:14 435.215
Gurwin Techsat 1B 02 Oct 04:22:14 04:26:50 31° 291° (WNW) 04:31:26 435.225
ITUPSAT 1 02 Oct 04:23:45 04:26:53 17° 266° (W) 04:30:03 437.325
Oscar 19 02 Oct 04:28:36 04:30:40 12° 297° (WNW) 04:32:44 437.125/150
AIST 1 02 Oct 04:35:32 04:38:31 18° 88° (E) 04:41:31
SWISSCUBE 02 Oct 04:36:04 04:37:32 11° 268° (W) 04:39:00 437.505
RS-15 02 Oct 05:01:16 05:13:39 68° 57° (ENE) 05:25:37 29.354- 29.394
KKS-1 02 Oct 05:21:12 05:25:16 35° 262° (W) 05:29:22 437.445
PCSat 02 Oct 05:24:38 05:28:43 21° 308° (NW) 05:32:49 145.827
CUBESAT XI-V 02 Oct 05:25:06 05:29:32 43° 73° (ENE) 05:34:01 437.345
ITAMSAT 1 02 Oct 05:30:07 05:34:22 26° 292° (WNW) 05:38:37 435.822/435.867
MOZHAYETS 4 02 Oct 05:31:12 05:34:23 19° 266° (W) 05:37:36
CUSAT 1 02 Oct 05:32:20 05:38:23 28° 69° (ENE) 05:43:26 437.405
AO-85 02 Oct 05:36:29 05:40:24 44° 57° (ENE) 05:44:07 145.980
STARS 02 Oct 05:41:37 05:45:49 44° 261° (W) 05:50:00 437.465
AO-7 02 Oct 05:44:44 05:52:56 67° 291° (WNW) 06:01:07 29.400- 29.500
Cosmos 2504 02 Oct 05:45:54 05:51:56 27° 286° (WNW) 05:57:52 435.465 / 435.565
DANDE 02 Oct 06:05:03 06:11:45 26° 68° (ENE) 06:17:48 436.750
AIST 1 02 Oct 06:12:01 06:15:51 29° 282° (WNW) 06:19:41
GOMX 1 02 Oct 06:25:59 06:26:50 11° 91° (E) 06:27:42 467.674
CUTE-I 02 Oct 06:26:08 06:28:04 12° 91° (E) 06:29:59 437.470
Cubesat XI-IV 02 Oct 06:27:25 06:29:29 12° 92° (E) 06:31:31 437.490
LilacSat-2 02 Oct 06:33:58 06:34:59 11° 92° (E) 06:35:58 437.200
HORYU 2 02 Oct 06:34:51 06:39:19 78° 103° (ESE) 06:43:47 437.375
STRAND 1 02 Oct 06:46:33 06:49:27 15° 64° (ENE) 06:52:21 437.568
BRITE-PL 02 Oct 06:58:13 07:02:48 81° 102° (ESE) 07:07:04 437.365/2234.400
O/OREOS (USA 219) 02 Oct 07:02:46 07:07:18 88° 110° (ESE) 07:11:55 437.305
CUBESAT XI-V 02 Oct 07:04:17 07:07:04 16° 267° (W) 07:09:52 437.345
CUSAT 1 02 Oct 07:13:58 07:20:35 42° 271° (W) 07:25:55 437.405
RS-15 02 Oct 07:14:59 07:25:11 32° 257° (WSW) 07:35:10 29.354- 29.394
AO-85 02 Oct 07:19:07 07:20:16 11° 253° (WSW) 07:21:24 145.980
NOAA 15 02 Oct 07:31:06 07:36:24 71° 102° (ESE) 07:41:38 137.62
AO-7 02 Oct 07:41:02 07:44:09 13° 309° (NW) 07:47:16 29.400- 29.500
NOAA 18 02 Oct 07:44:44 07:50:08 59° 101° (ESE) 07:55:32 137.9125
DANDE 02 Oct 07:46:57 07:55:06 61° 267° (W) 08:02:06 436.750
DOVE 4 02 Oct 07:57:52 08:01:57 56° 100° (E) 08:06:03 437.250
GOMX 1 02 Oct 08:01:10 08:05:16 47° 286° (WNW) 08:09:14 467.674
CUTE-I 02 Oct 08:03:11 08:08:32 70° 285° (WNW) 08:13:51 437.470
Cubesat XI-IV 02 Oct 08:04:37 08:09:57 69° 285° (WNW) 08:15:16 437.490
LilacSat-2 02 Oct 08:05:47 08:09:25 40° 286° (WNW) 08:13:03 437.200
GONETS M04 02 Oct 08:20:25 08:28:36 44° 88° (E) 08:36:47
STRAND 1 02 Oct 08:23:08 08:28:06 55° 259° (W) 08:33:08 437.568
BEESAT 3 02 Oct 08:25:05 08:26:19 11° 47° (NE) 08:27:33 437.485
PHONESAT 2.4 02 Oct 08:34:34 08:37:12 32° 150° (SSE) 08:39:51 2401.200-2431.200
CINEMA 3 02 Oct 08:34:34 08:38:27 34° 98° (E) 08:42:27 145.822/145.860
Cosmos 2499 02 Oct 08:40:35 08:47:19 47° 90° (E) 08:53:59 435.465 / 435.565
SEEDS 02 Oct 08:57:06 09:00:50 30° 97° (E) 09:04:33 437.485
CUTE 1.7 + AOD 2 02 Oct 09:04:23 09:08:37 55° 100° (E) 09:12:48 437.475
AAUSAT CUBESAT 2 02 Oct 09:06:04 09:09:04 19° 95° (E) 09:12:02 437.432
CANX-2 02 Oct 09:06:35 09:10:53 70° 100° (E) 09:15:10 2200.000
CUBEBUG 2 02 Oct 09:09:44 09:13:11 22° 96° (E) 09:16:43 437.445
NOAA 15 02 Oct 09:13:11 09:15:30 13° 298° (WNW) 09:17:49 137.62
UWE-3 02 Oct 09:17:53 09:20:54 18° 94° (E) 09:23:58 435.000/436.395/437.385
HO-68 02 Oct 09:20:13 09:27:23 74° 104° (ESE) 09:34:31 435.675
Oscar 11 02 Oct 09:26:02 09:27:43 12° 92° (E) 09:29:25 145.826/435.025
NOAA 18 02 Oct 09:26:56 09:30:16 17° 297° (WNW) 09:33:36 137.9125
PRISM 02 Oct 09:28:24 09:32:32 67° 75° (ENE) 09:36:41 437.425
BEESAT 2 02 Oct 09:29:02 09:32:25 25° 54° (NE) 09:35:47 435.950
ZACube-1 02 Oct 09:36:09 09:39:10 18° 95° (E) 09:42:12 437.345
UNISAT 6 02 Oct 09:50:40 09:52:38 13° 66° (ENE) 09:54:36 437.425
COMPASS 1 02 Oct 09:54:19 09:58:34 80° 281° (WNW) 10:02:44 437.405
BEESAT 3 02 Oct 10:00:25 10:04:22 62° 243° (WSW) 10:08:15 437.485
PHONESAT 2.4 02 Oct 10:10:26 10:13:13 43° 344° (NNW) 10:16:01 2401.200-2431.200
CINEMA 3 02 Oct 10:12:38 10:15:20 17° 291° (WNW) 10:18:05 145.822/145.860
GONETS M04 02 Oct 10:17:31 10:25:25 36° 285° (WNW) 10:33:23
ANTELSAT 02 Oct 10:23:48 10:27:33 31° 72° (ENE) 10:31:19 437.575/2403.000
FUNcube-1 02 Oct 10:26:14 10:30:37 65° 101° (E) 10:35:04 145.935
SEEDS 02 Oct 10:33:17 10:36:18 19° 291° (WNW) 10:39:18 437.485
Cosmos 2499 02 Oct 10:34:59 10:40:37 25° 287° (WNW) 10:46:14 435.465 / 435.565
AAUSAT CUBESAT 2 02 Oct 10:40:55 10:44:31 28° 288° (WNW) 10:48:04 437.432
TIGRISAT 02 Oct 10:42:31 10:46:36 49° 74° (ENE) 10:50:43 435.000
CUTE 1.7 + AOD 2 02 Oct 10:42:43 10:43:54 11° 294° (WNW) 10:45:05 437.475
CUBEBUG 2 02 Oct 10:46:03 10:49:44 27° 288° (WNW) 10:53:31 437.445
HUMSAT D 02 Oct 10:48:45 10:52:01 21° 95° (E) 10:55:18 437.325/437.525
JAS-2 02 Oct 10:52:19 10:55:27 14° 56° (NE) 10:58:43 435.910
UWE-3 02 Oct 10:53:25 10:57:24 34° 287° (WNW) 11:01:26 435.000/436.395/437.385
Oscar 11 02 Oct 10:59:52 11:04:04 48° 286° (WNW) 11:08:16 145.826/435.025
BEESAT 2 02 Oct 11:06:55 11:10:05 22° 249° (WSW) 11:13:14 435.950
HO-68 02 Oct 11:09:39 11:14:19 19° 300° (WNW) 11:18:59 435.675
ZACube-1 02 Oct 11:11:30 11:15:28 34° 287° (WNW) 11:19:31 437.345
DELFI C3 02 Oct 11:17:53 11:21:54 75° 283° (WNW) 11:25:51 145.870
UNISAT 6 02 Oct 11:24:51 11:28:55 44° 261° (W) 11:33:01 437.425
DUCHIFAT 1 02 Oct 11:30:24 11:33:19 19° 69° (ENE) 11:36:13 145.980
QB50P1 02 Oct 11:37:30 11:41:00 26° 71° (ENE) 11:44:30 145.935-145.965
PHONESAT 2.4 02 Oct 11:47:09 11:49:40 25° 1° (N) 11:52:11 2401.200-2431.200
POPSAT HIP 1 02 Oct 11:51:06 11:54:58 37° 73° (ENE) 11:58:50 437.405
ANTELSAT 02 Oct 12:01:29 12:04:19 17° 266° (W) 12:07:08 437.575/2403.000
NANOSAT C BR1 02 Oct 12:03:37 12:07:40 51° 74° (ENE) 12:11:44 145.865
FUNcube-1 02 Oct 12:05:55 12:06:18 10° 295° (WNW) 12:06:41 145.935
CUBEBUG 1 02 Oct 12:18:36 12:21:41 19° 95° (E) 12:24:45 437.445
TIGRISAT 02 Oct 12:22:35 12:23:33 11° 268° (W) 12:24:31 435.000
HUMSAT D 02 Oct 12:23:58 12:27:34 27° 289° (WNW) 12:31:11 437.325/437.525
VELOX 1 02 Oct 12:27:42 12:30:44 18° 95° (E) 12:33:44 145.980
PCSat 02 Oct 12:31:42 12:35:45 21° 52° (NE) 12:39:46 145.827
QB50P2 02 Oct 12:31:52 12:36:01 60° 259° (W) 12:40:11 145.880/145.840
JAS-2 02 Oct 12:32:32 12:39:05 81° 75° (ENE) 12:46:31 435.910
AIST 2 02 Oct 12:33:52 12:38:05 88° 61° (ENE) 12:42:17 435.215
POLYITAN 1 02 Oct 12:34:03 12:38:10 60° 259° (W) 12:42:19 437.675
SPROUT 02 Oct 12:36:45 12:38:18 12° 92° (E) 12:39:49 437.525
BUGSAT 1 02 Oct 12:46:00 12:50:01 58° 75° (ENE) 12:54:00 437.445
ESTCUBE 1 02 Oct 12:48:57 12:53:29 75° 102° (ESE) 12:57:59 437.505/2401.250
50 SAT 02 Oct 12:51:13 12:54:29 30° 98° (E) 12:57:44 437.505
M-CUBED/EXP-1 PRIME 02 Oct 12:57:47 12:59:12 12° 100° (E) 13:00:37 437.505
UKube-1 02 Oct 12:59:54 13:02:59 19° 95° (E) 13:06:02 .
DUCHIFAT 1 02 Oct 13:05:08 13:08:46 29° 263° (W) 13:12:25 145.980
QB50P1 02 Oct 13:13:33 13:16:42 21° 265° (W) 13:19:52 145.935-145.965
AISAT 02 Oct 13:19:47 13:24:11 82° 103° (ESE) 13:28:32 437.250
PHONESAT 2.4 02 Oct 13:23:14 13:26:05 48° 17° (NNE) 13:28:57 2401.200-2431.200
POPSAT HIP 1 02 Oct 13:28:34 13:30:51 14° 267° (W) 13:33:09 437.405
DX 1 02 Oct 13:37:26 13:41:47 74° 103° (ESE) 13:46:05 434.975-435.025
TISAT 1 02 Oct 13:39:20 13:40:06 10° 92° (E) 13:40:53 437.305
NANOSAT C BR1 02 Oct 13:43:03 13:43:39 10° 268° (W) 13:44:14 145.865
AUBIESAT-1 02 Oct 13:48:35 13:51:51 53° 106° (ESE) 13:55:12 437.475
Cosmos 2504 02 Oct 13:49:54 13:52:22 12° 66° (ENE) 13:54:54 435.465 / 435.565
CUBEBUG 1 02 Oct 13:54:12 13:57:58 30° 289° (WNW) 14:01:42 437.445
Oscar 19 02 Oct 14:00:12 14:05:22 72° 75° (ENE) 14:10:33 437.125/150
Gurwin Techsat 1B 02 Oct 14:00:16 14:04:58 33° 70° (ENE) 14:09:40 435.225
VELOX 1 02 Oct 14:03:18 14:07:13 32° 289° (WNW) 14:11:08 145.980
SO-50 02 Oct 14:05:43 14:10:15 41° 114° (ESE) 14:14:45 436.795
Cosmos 2491 02 Oct 14:05:45 14:12:52 29° 84° (E) 14:20:01 435.465 / 435.565
SPROUT 02 Oct 14:10:21 14:14:26 47° 286° (WNW) 14:18:30 437.525
YUBILEINY 02 Oct 14:11:06 14:19:36 55° 79° (E) 14:28:03 435.215
PCSat 02 Oct 14:14:10 14:19:24 50° 249° (WSW) 14:24:35 145.827
JAS-2 02 Oct 14:21:30 14:25:01 15° 273° (W) 14:28:43 435.910
50 SAT 02 Oct 14:25:51 14:27:39 13° 292° (WNW) 14:29:26 437.505
M-CUBED/EXP-1 PRIME 02 Oct 14:30:59 14:33:45 25° 292° (WNW) 14:36:35 437.505
UKube-1 02 Oct 14:35:15 14:39:00 30° 289° (WNW) 14:42:45 .
AO-7 02 Oct 14:49:27 14:55:51 26° 59° (ENE) 15:02:13 29.400- 29.500
ITUPSAT 1 02 Oct 14:49:53 14:52:13 13° 93° (E) 14:54:34 437.325
SWISSCUBE 02 Oct 14:59:03 15:02:34 20° 95° (E) 15:06:04 437.505
PHONESAT 2.4 02 Oct 14:59:30 15:02:03 27° 212° (SSW) 15:04:37 2401.200-2431.200
ITAMSAT 1 02 Oct 15:05:09 15:09:51 37° 70° (ENE) 15:14:34 435.822/435.867
BEESAT 02 Oct 15:11:08 15:15:01 24° 96° (E) 15:18:52 436.000
TISAT 1 02 Oct 15:11:56 15:15:59 50° 286° (WNW) 15:20:01 437.305
Cosmos 2504 02 Oct 15:39:05 15:46:44 80° 83° (E) 15:54:58 435.465 / 435.565
Gurwin Techsat 1B 02 Oct 15:40:30 15:44:52 26° 264° (W) 15:49:16 435.225
Oscar 19 02 Oct 15:43:55 15:45:07 11° 269° (W) 15:46:20 437.125/150
SO-50 02 Oct 15:47:06 15:50:51 22° 309° (NW) 15:54:34 436.795
MOZHAYETS 4 02 Oct 15:54:08 15:54:52 10° 91° (E) 15:55:36
Cosmos 2491 02 Oct 16:00:37 16:09:08 54° 281° (W) 16:17:45 435.465 / 435.565
YUBILEINY 02 Oct 16:08:52 16:15:48 28° 276° (W) 16:22:44 435.215
AIST 1 02 Oct 16:21:53 16:25:59 44° 80° (E) 16:30:02
ITUPSAT 1 02 Oct 16:25:37 16:30:18 52° 287° (WNW) 16:34:58 437.325
SWISSCUBE 02 Oct 16:36:02 16:40:24 35° 289° (WNW) 16:44:44 437.505
AO-7 02 Oct 16:39:40 16:47:55 67° 256° (WSW) 16:56:11 29.400- 29.500
ITAMSAT 1 02 Oct 16:45:23 16:49:21 22° 265° (W) 16:53:22 435.822/435.867
BEESAT 02 Oct 16:48:36 16:52:44 29° 290° (WNW) 16:56:51 436.000
KKS-1 02 Oct 17:14:54 17:19:14 53° 101° (E) 17:23:34 437.445
O/OREOS (USA 219) 02 Oct 17:16:06 17:20:42 85° 253° (WSW) 17:25:16 437.305
CUBESAT XI-V 02 Oct 17:26:32 17:28:57 14° 92° (E) 17:31:21 437.345
MOZHAYETS 4 02 Oct 17:27:47 17:32:22 62° 285° (WNW) 17:36:57
HORYU 2 02 Oct 17:29:31 17:33:42 46° 73° (ENE) 17:37:55 437.375
GOMX 1 02 Oct 17:30:13 17:32:18 12° 66° (ENE) 17:34:21 467.674
STARS 02 Oct 17:34:06 17:38:12 39° 99° (E) 17:42:18 437.465
Cosmos 2504 02 Oct 17:35:00 17:39:15 16° 278° (W) 17:43:39 435.465 / 435.565
